"Pseudo-MPEC" for P11TKwk

Created 2024 May 16 17:22:07 UT using Find_Orb

Click here for an explanation of pseudo-MPECs

 
 Astrometry: 
     P11TKwk* C2024 04 26Y)#9bxAstrometry.!eredacted;@AjclickI+i[tTjr1.au)UvLF51
     P11TKwk  C2024 04 265Y)Nv\6wG0?lY$[__0nUTfrftYaWh7)#Jf+HvRJ,KfOQKha?C_o\F51
     P11TKwk  C2024 04 26Y(w6qhsN8:Zm0Efp\(E4.gu'0kg'.$herekYl._XBRuRQanGxQF2F51
     P11TKwk  C2024 04 2693a@wSaW4b@for9-y+KaD*)vY5M@*Nr5N*Nalexplanationn9y0F51

Station data:
(F51) Pan-STARRS 1, Haleakala  (N20.707234 W156.255910)  US/Hawaii.
   Observers J. Bulger, T. Lowe, A. Schultz, M. Willman. Measurers K.
   Chambers, S. Chastel, T. de Boer, L. Denneau, J. Fairlamb, H. Flewelling,
   M. Huber, C.-C. Lin, E. Magnier, Y. Ramanjooloo, R. Wainscoat, R. Weryk.
   1.8-m Ritchey-Chrétien + CCD.

Orbital elements:  P11TKwk
   Perihelion 2026 Apr 20.33065 +/- 630 TT =  7:56:08 (JD 2461150.83065)
Epoch 2024 Apr 26.0 TT = JDT 2460426.5   Ju: 0.1157              AutoNEOCP
M 263.60904550 +/- 90               (J2000 ecliptic)
n   0.13307590 +/- 0.337            Peri.  160.05967 +/- 80
a   3.79958739 +/- 6.41             Node   133.88689 +/- 22
e   0.4357950 +/- 0.211             Incl.   71.38614 +/- 25
P   7.41                   H 13.25  G  0.15   U 12.0  SR
q 2.14374600 +/- 3.5    Q 5.45542878 +/- 48.7
From 4 observations 2024 Apr. 26 (45.1 min); mean residual 0".08
Residuals in arcseconds: 
240426 F51  .07+  .00     240426 F51  .06-  .11-    
240426 F51  .05-  .10+    240426 F51  .09+  .08+    

Ephemerides (geocentric):
Date (UTC) HH   RA             Dec           delta  r     elong  mag " sig PA
---- --------  ------------   ------------  ------ ------ -----  --- --------
2024 05 16 17  09 09 34.761   +38 00 47.03  4.7095 4.5272  73.5 20.6 1837  77
2024 05 16 18  09 09 35.679   +38 00 44.64  4.7100 4.5271  73.5 20.6 1844  77
2024 05 16 19  09 09 36.599   +38 00 42.24  4.7105 4.5270  73.4 20.6 1850  77
2024 05 16 20  09 09 37.520   +38 00 39.83  4.7110 4.5269  73.4 20.6 1857  77
2024 05 16 21  09 09 38.443   +38 00 37.42  4.7114 4.5267  73.4 20.6 1863  77
2024 05 16 22  09 09 39.367   +38 00 35.01  4.7119 4.5266  73.3 20.6 1870  77
2024 05 16 23  09 09 40.293   +38 00 32.59  4.7124 4.5265  73.3 20.6 1876  77
2024 05 17 00  09 09 41.220   +38 00 30.17  4.7129 4.5264  73.3 20.6 1883  77
2024 05 17 01  09 09 42.149   +38 00 27.75  4.7134 4.5263  73.2 20.6 1889  77
2024 05 17 02  09 09 43.079   +38 00 25.32  4.7139 4.5261  73.2 20.6 1896  77
2024 05 17 03  09 09 44.011   +38 00 22.89  4.7144 4.5260  73.2 20.6 1903  77
2024 05 17 04  09 09 44.945   +38 00 20.45  4.7149 4.5259  73.1 20.6 1909  77
2024 05 17 05  09 09 45.879   +38 00 18.01  4.7154 4.5258  73.1 20.6 1916  77
2024 05 17 06  09 09 46.816   +38 00 15.56  4.7159 4.5257  73.1 20.6 1922  77
2024 05 17 07  09 09 47.754   +38 00 13.11  4.7164 4.5255  73.0 20.6 1929  77
2024 05 17 08  09 09 48.693   +38 00 10.66  4.7169 4.5254  73.0 20.6 1936  77
2024 05 17 09  09 09 49.634   +38 00 08.20  4.7174 4.5253  72.9 20.6 1942  77
2024 05 17 10  09 09 50.576   +38 00 05.74  4.7178 4.5252  72.9 20.6 1949  77
2024 05 17 11  09 09 51.520   +38 00 03.27  4.7183 4.5250  72.9 20.6 1956  77
2024 05 17 12  09 09 52.465   +38 00 00.80  4.7188 4.5249  72.8 20.6 1962  77
2024 05 17 13  09 09 53.412   +37 59 58.33  4.7193 4.5248  72.8 20.6 1969  77
2024 05 17 14  09 09 54.360   +37 59 55.85  4.7198 4.5247  72.8 20.6 1976  77
2024 05 17 15  09 09 55.310   +37 59 53.37  4.7203 4.5246  72.7 20.6 1983  77
2024 05 17 16  09 09 56.262   +37 59 50.88  4.7208 4.5244  72.7 20.6 1989  77
2024 05 17 17  09 09 57.214   +37 59 48.39  4.7213 4.5243  72.7 20.6 1996  77
2024 05 17 18  09 09 58.169   +37 59 45.90  4.7218 4.5242  72.6 20.6 2003  77
2024 05 17 19  09 09 59.125   +37 59 43.40  4.7223 4.5241  72.6 20.6 2010  77
2024 05 17 20  09 10 00.082   +37 59 40.89  4.7228 4.5240  72.6 20.6 2016  77
2024 05 17 21  09 10 01.041   +37 59 38.39  4.7232 4.5238  72.5 20.6 2023  77
2024 05 17 22  09 10 02.001   +37 59 35.88  4.7237 4.5237  72.5 20.6 2030  77
2024 05 17 23  09 10 02.963   +37 59 33.36  4.7242 4.5236  72.5 20.6 2037  77
2024 05 18 00  09 10 03.926   +37 59 30.84  4.7247 4.5235  72.4 20.6 2044  77
2024 05 18 01  09 10 04.891   +37 59 28.32  4.7252 4.5234  72.4 20.6 2051  77
2024 05 18 02  09 10 05.857   +37 59 25.79  4.7257 4.5232  72.4 20.6 2057  76
2024 05 18 03  09 10 06.825   +37 59 23.26  4.7262 4.5231  72.3 20.6 2064  76
2024 05 18 04  09 10 07.794   +37 59 20.73  4.7267 4.5230  72.3 20.6 2071  76
2024 05 18 05  09 10 08.765   +37 59 18.19  4.7272 4.5229  72.3 20.6 2078  76
2024 05 18 06  09 10 09.737   +37 59 15.65  4.7276 4.5227  72.2 20.6 2085  76
2024 05 18 07  09 10 10.711   +37 59 13.10  4.7281 4.5226  72.2 20.6 2092  76
2024 05 18 08  09 10 11.686   +37 59 10.55  4.7286 4.5225  72.2 20.6 2099  76
2024 05 18 09  09 10 12.663   +37 59 08.00  4.7291 4.5224  72.1 20.6 2106  76
2024 05 18 10  09 10 13.641   +37 59 05.44  4.7296 4.5223  72.1 20.6 2113  76
2024 05 18 11  09 10 14.621   +37 59 02.88  4.7301 4.5221  72.1 20.6 2120  76
2024 05 18 12  09 10 15.602   +37 59 00.31  4.7306 4.5220  72.0 20.6 2126  76
2024 05 18 13  09 10 16.584   +37 58 57.74  4.7311 4.5219  72.0 20.6 2133  76
2024 05 18 14  09 10 17.568   +37 58 55.16  4.7315 4.5218  72.0 20.6 2140  76
2024 05 18 15  09 10 18.554   +37 58 52.59  4.7320 4.5217  71.9 20.6 2147  76
2024 05 18 16  09 10 19.541   +37 58 50.00  4.7325 4.5215  71.9 20.6 2154  76